TimeMST,TemperatureF,Dew PointF,Humidity,Sea Level PressureIn,VisibilityMPH,Wind Direction,Wind SpeedMPH,Gust SpeedMPH,PrecipitationIn,Events,Conditions,WindDirDegrees,DateUTC
12:53 AM,25.0,16.0,69,30.05,10.0,WNW,11.5,-,N/A,,Clear,300,2013-02-13 07:53:00
1:53 AM,24.1,16.0,71,30.04,10.0,WNW,9.2,-,N/A,,Clear,290,2013-02-13 08:53:00
2:53 AM,27.0,17.1,66,30.01,10.0,WNW,11.5,-,N/A,,Clear,300,2013-02-13 09:53:00
3:53 AM,28.9,18.0,64,29.99,10.0,WNW,9.2,-,N/A,,Clear,290,2013-02-13 10:53:00
4:53 AM,27.0,17.1,66,29.99,10.0,West,10.4,-,N/A,,Clear,270,2013-02-13 11:53:00
5:53 AM,25.0,15.1,66,30.00,10.0,West,11.5,-,N/A,,Clear,270,2013-02-13 12:53:00
6:53 AM,23.0,15.1,72,30.01,10.0,West,12.7,-,N/A,,Clear,270,2013-02-13 13:53:00
7:53 AM,28.9,16.0,58,30.01,10.0,West,13.8,-,N/A,,Clear,270,2013-02-13 14:53:00
8:53 AM,35.1,19.0,52,29.99,10.0,WNW,16.1,-,N/A,,Clear,290,2013-02-13 15:53:00
9:53 AM,41.0,21.9,47,29.97,10.0,NW,21.9,29.9,N/A,,Clear,310,2013-02-13 16:53:00
10:53 AM,45.0,21.9,40,29.95,10.0,NW,23.0,32.2,N/A,,Clear,310,2013-02-13 17:53:00
11:53 AM,48.9,24.1,38,29.94,10.0,NW,16.1,26.5,N/A,,Clear,310,2013-02-13 18:53:00
12:53 PM,50.0,23.0,35,29.91,10.0,NW,23.0,28.8,N/A,,Clear,310,2013-02-13 19:53:00
1:53 PM,50.0,21.9,33,29.90,10.0,NW,19.6,27.6,N/A,,Scattered Clouds,320,2013-02-13 20:53:00
2:53 PM,50.0,23.0,35,29.89,10.0,NW,13.8,-,N/A,,Overcast,320,2013-02-13 21:53:00
3:53 PM,50.0,21.9,33,29.90,10.0,NNW,11.5,18.4,N/A,,Mostly Cloudy,330,2013-02-13 22:53:00
4:53 PM,46.9,24.1,41,29.90,10.0,NW,4.6,-,N/A,,Partly Cloudy,310,2013-02-13 23:53:00
5:53 PM,42.1,24.1,49,29.92,10.0,West,8.1,-,N/A,,Clear,280,2013-02-14 00:53:00
6:53 PM,37.0,24.1,59,29.96,10.0,WNW,10.4,-,N/A,,Clear,290,2013-02-14 01:53:00
7:53 PM,37.0,25.0,62,29.98,10.0,WNW,13.8,-,N/A,,Clear,300,2013-02-14 02:53:00
8:53 PM,35.1,24.1,64,30.00,10.0,NW,13.8,-,N/A,,Clear,310,2013-02-14 03:53:00
9:53 PM,32.0,25.0,75,30.00,10.0,NW,8.1,-,N/A,,Partly Cloudy,310,2013-02-14 04:53:00
10:53 PM,32.0,27.0,82,30.02,10.0,NW,13.8,-,N/A,,Clear,310,2013-02-14 05:53:00
11:53 PM,32.0,27.0,82,30.02,10.0,NW,12.7,-,N/A,,Clear,320,2013-02-14 06:53:00